Simultaneous Nadir Overpasses (SNOs) Predictions

Prediction of SNOs between METOP-A and NOAA-19 Satellite Orbit:

Table of predicted SNOs for the next 14.0 days since TLE Epoch: 6/9/2013
Index Date (METOP-A) Time (METOP-A) Lat,Lon (METOP-A) SZA (METOP-A ) Date (NOAA-19) Time (NOAA-19) Lat,Lon (NOAA-19) SZA (NOAA-19 ) Distance(km) Time Diff (sec)
1 06/18/2013 13:15:55 -74.04, 155.52 129.36 06/18/2013 13:14:47 -74.07, 152.88 129.22 80.65 68
2 06/18/2013 14:06:46 73.48, -38.49 50.12 06/18/2013 14:05:37 73.47, -38.42 50.13 2.14 69
3 06/18/2013 14:57:28 -73.48, 128.83 129.88 06/18/2013 14:56:39 -73.46, 128.85 129.89 1.68 49
4 06/18/2013 15:48:08 73.45, -63.88 50.10 06/18/2013 15:47:41 73.45, -63.88 50.10 0.59 27
5 06/18/2013 16:38:50 -73.45, 103.44 129.90 06/18/2013 16:38:43 -73.44, 103.39 129.92 2.52 7
6
